Погода в Екатеринбурге

Погода в Екатеринбурге : погода сейчас, прогноз погоды и архив. Всё, что Вы хотите узнать о погоде в Екатеринбурге!

Хотите узнать прогноз погоды в Екатеринбурге? Тогда Вам сюда: Погода в Екатеринбурге

Поиск расширенной информации на нашем сайте:

Другие новости

Новости СМИ2

Главная страница сайта

Новости сайта

03.07.2017

Напоминаем, что на нашем специализированном сайте Метеоцентр.Азия вы можете получить высокодетализированные автоматические прогнозы погоды по пунктам России, СНГ и мира в авиационном формате (включающие направление и скорость ветра, видимость, явления погоды, количество и форму облачности, нижнюю и верхнюю границу облачности).


Погода в Екатеринбурге - сегодня

Время (UTC), дата Ветер
(°,м/с) 
Видим.   Явления Облачность Т
(°С)
Тd
(°С)
f(%) Тe
(°С)
Pmin
(гПа)
dP
(гПа)
Po
(мм)
O2
(г/м3)
Тmin Tmax R s Состояние
почвы
18 21.09.18 310 (СЗ) 10 км    10/8 1000 м средняя 
[Sc|Ac As]
+10.9 +6.9 76 +11  1010.8  0.9  733  283           
21 21.09.18 310 (СЗ) 10 км    10/8 1000 м средняя 
[Sc|Ac As]
+10 +6.7 80 +9  1011.2  0.3  733  284           
00 22.09.18 300 (СЗ) 4{10}  10 км    9/9 1000 м 
[Sc]
+8.8 +5.6 80 +8  1012.7  1.2  734  286           
03 22.09.18 280 (З) 20000 м    6/0 верхняя 
[Cs]
+7.9 +5.1 82 +7  1013.8  1.1  735  287  +7.8        влажная 
06 22.09.18 310 (СЗ) 20000 м    9/8 600 м верхняя 
[Sc|Cc]
+10.7 +4 63 +10  1014.1  0.6  735  285           
09 22.09.18 290 (З) 4{11}  20000 м    10/10 600 м 
[Sc]
+12 +5.1 63 +11  1014.1  -0.1  736  283           
12 22.09.18 300 (СЗ) 4{10}  20000 м    9/9 600 м 
[Sc]
+13.2 +7 66 +13  1013.8  -0.2  735  281           
18 22.09.18 310 (СЗ) 10 км    3/0 верхняя 
[Ci fib]
+10.4 +7.5 82 +11  1016.5  1.6  737  285           
21 22.09.18 300 (СЗ) 10 км    1/0 верхняя 
[Ci fib]
+8.6 +6.8 88 +9  1017.6  0.8  738  287           
00 23.09.18 тихо ()   10 км    ясно 
+6.9 +5.3 90 +7  1019  1.1  739  289           
03 23.09.18 тихо ()   10 км    9/9 1000 м 
+6.3 +4.8 90 +6  1020.2  739  290  +5.5        влажная 
06 23.09.18 260 (З) 10 км    8/4 200 м верхняя 
[St|Ci fib]
+10.6 +6.9 78 +11  1020.4  0.8  740  286           
09 23.09.18 260 (З) 10 км    8/0 верхняя 
[Ci fib]
+16.5 +5.9 49 +17  1018.8  -0.9  739  280           
12 23.09.18 270 (З) 20000 м    10/0 верхняя 
[Ci fib]
+18.1 +4.7 41 +19  1018  -0.6  739  278           
15 23.09.18 160 (Ю) 10 км    ясно 
+13.5 +6.3 62 +15  1018.5  739  283    +18.8       
18 23.09.18 200 (Ю) 10 км    ясно 
+10.4 +6.3 76 +12  1018.7  -0.2  739  286           
21 23.09.18 200 (Ю) 10 км    ясно 
+7.7 +5.2 84 +9  1018.6  -0.4  738  289           
00 24.09.18 160 (Ю) 10 км  дымка  ясно 
+6.6 +4.6 87 +8  1018.7  0.1  738  290           
03 24.09.18 140 (ЮВ) 4000 м  дымка  ясно 
+6.8 +4.8 87 +8  1018.7  0.1  738  290  +5.8        влажная 
06 24.09.18 170 (Ю) 10 км    ясно 
+16.6 +8.2 58 +18  1017.2  -0.3  738  279           
09 24.09.18 150 (ЮВ) 20000 м    ясно 
+21.6 +8.6 43 +22  1016  -0.6  738  274           
12 24.09.18 170 (Ю) 20000 м    3/3 600 м 
[Cu Sc]
+21.8 +9.8 46 +23  1015.8  -0.2  738  273           
18 24.09.18 170 (Ю) 10 км    ясно 
+15.1 +10.4 73 +18  1017.1  0.4  738  280           
21 24.09.18 120 (ЮВ) 10 км    ясно 
+13.1 +9.7 80 +15  1017  -0.3  738  282           
00 25.09.18 130 (ЮВ) 10 км    ясно 
+11.6 +8.9 83 +12  1017.4  0.2  738  284           
Время (UTC), дата Ветер
(°,м/с) 
Видим.   Явления Облачность Т
(°С)
Тd
(°С)
f(%) Тe
(°С)
Pmin
(гПа)
dP
(гПа)
Po
(мм)
O2
(г/м3)
Тmin Tmax R s Состояние
почвы

Для получения пояснительной информации подведите курсор к названию столбца.

ПОГОДА в Екатеринбурге - архив

Всё, что Вы хотите узнать о погоде в Екатеринбурге - удобно и подробно!

Выберите нужную дату (начиная с 1 января 2015* года) и нажмите кнопку "Найти".
Будут отображены архивные сводки погоды по пункту Екатеринбург, начиная с указанной даты.


Отображать данные в формате CSV (для использования в таблицах Excel)


Внимание! Наш архив погоды предназначен исключительно для личного некоммерческого использования в познавательных целях. Если Вам необходимы официальные справки о состоянии погоды (для производственных, юридических, коммерческих и т.п. целей), обращайтесь в органы Росгидромета.

*Примечание: данная дата относится к архиву по метеостанциям СССР (Россия, СНГ, Балтия).
Архив по метеостанциям Зарубежной Европы и Азии (кроме Китая) хранится 10 дней, по другим регионам земного шара (Китай, Африка, Америка, Австралия, Океания) - 1 день.

Екатеринбург - район местоположения метеостанции


Название, широта, долгота, высота метеостанции:
Екатеринбург (город) 56.8°ш. 60.6°д. 283 м над ур. моря [Российская Федерация]

Дополнительная информация

В oтличие oт бoльшинства пoгoдных сайтoв мы публикуем пoдрoбную метеoинфoрмацию в детальнoм прoфессиoнальнoм фoрмате.

Характеристики температуры и влажнoсти вoздуха измеряются на высoте 2 м в тени вдали oт зданий и деревьев.
Скoрoсть ветра измеряется на высoте 10 м (на урoвне рoста челoвека скoрoсть ветра ниже в 1.5-2 раза). Если метеoстанция нахoдится в гoрoде или в лесу, тo скoрoсть ветра занижена на 2-4 м/с пo сравнению с oткрытым местoм. Скoрoсть ветра над акватoриями крупных рек и oзёр, а также на вершинах хoлмoв на 2-5 м/с выше, чем в oбычных услoвиях.
Атмoсфернoе давление в разных тoчках местнoсти мoжет значительнo oтличаться oт давления на метеoстанции, в зависимoсти oт услoвий рельефа (при пoдъёме на 10 м давление пoнижается примернo на 1 мм рт.ст.).